This demonstration page uses our WeatherBlox Daily Observations layout. Learn more.

Left ArrowRight Arrow

38.20091, -84.87328

Hourly Observations for September 13, 2016

Temp ( °F °C ) Dew Point ( °F °C ) Humidity (%) Winds ( mph kmh ) Pressure ( in mb ) Visibility ( mi km ) Precip ( " mm )
12:53 am 00:53 Clear 59 15 56 13.3 90 90 NNW 3 6 30.08 1019 10 16 0.00 0.00
1:53 am 01:53 Clear 59 15 55 12.8 87 87 Calm 30.08 1019 10 16 0.00 0.00
2:53 am 02:53 Clear 59 15 56 13.3 90 90 Calm 30.08 1019 10 16 0.00 0.00
3:53 am 03:53 Clear 57 13.9 53 11.7 87 87 Calm 30.08 1019 10 16 0.00 0.00
4:53 am 04:53 Clear 56 13.3 53 11.7 90 90 Calm 30.09 1019 10 16 0.00 0.00
5:53 am 05:53 Clear 57 13.9 53 11.7 87 87 Calm 30.09 1019 10 16 0.00 0.00
6:53 am 06:53 Clear 57 13.9 53 11.7 87 87 Calm 30.10 1019 10 16 0.00 0.00
7:53 am 07:53 Sunny 57 13.9 53 11.7 87 87 Calm 30.12 1020 10 16 0.00 0.00
8:53 am 08:53 Sunny 63 17.2 57 13.9 81 81 Calm 30.13 1020 10 16 0.00 0.00
9:53 am 09:53 Sunny 71 21.7 60 15.6 68 68 Calm 30.14 1021 10 16 0.00 0.00
10:53 am 10:53 Sunny 77 25 59 15 54 54 VRB 3 6 30.15 1021 10 16 0.00 0.00
11:53 am 11:53 Sunny 80 26.7 60 15.6 51 51 VRB 3 6 30.15 1021 10 16 0.00 0.00
12:53 pm 12:53 Sunny 84 28.9 57 13.9 40 40 VRB 5 7 30.14 1021 10 16 0.00 0.00
1:53 pm 13:53 Sunny 85 29.4 57 13.9 39 39 W 7 11 30.14 1021 10 16 0.00 0.00
2:53 pm 14:53 Sunny 86 30 57 13.9 37 37 WNW 7 11 30.12 1020 10 16 0.00 0.00
3:53 pm 15:53 Sunny 86 30 54 12.2 33 33 W 7 11 30.10 1019 10 16 0.00 0.00
4:53 pm 16:53 Sunny 87 30.6 52 11.1 30 30 WSW 6 9 30.09 1019 10 16 0.00 0.00
5:53 pm 17:53 Sunny 86 30 53 11.7 32 32 WNW 5 7 30.08 1019 10 16 0.00 0.00
6:53 pm 18:53 Sunny 84 28.9 56 13.3 38 38 WNW 3 6 30.09 1019 10 16 0.00 0.00
7:53 pm 19:53 Clear 74 23.3 61 16.1 64 64 Calm 30.10 1019 10 16 0.00 0.00
8:53 pm 20:53 Clear 69 20.6 61 16.1 76 76 Calm 30.10 1019 10 16 0.00 0.00
9:53 pm 21:53 Clear 67 19.4 60 15.6 79 79 Calm 30.11 1020 10 16 0.00 0.00
10:53 pm 22:53 Clear 64 17.8 59 15 84 84 Calm 30.11 1020 10 16 0.00 0.00
11:53 pm 23:53 Clear 64 17.8 59 15 84 84 NNW 6 9 30.11 1020 10 16 0.00 0.00

Powered by AerisWeather